[[{"header":{"parameterUnit":"m.s-1","parameterCategory":1,"la1":30.2991,"la2":30.254,"lo1":-89.0895,"lo2":-89.0444,"dy":0.0017,"dx":0.0017,"nx":28,"ny":28,"refTime":"2025-08-16T03:00:00:Z","depth":0,"parameterNumber":2,"parameterNumberName":"U-component_of_WINDS"},"data":[0,0,0,0,0,0,0,0,0,0,0,0,0,0,0,0,0,0,0,0,0,0,0,0,0,0,0,0,0,0,0,0,0,0,0,0,0,0,0,0,0,0,0,0,0,0,0,0,0,0,0,0,0,0,0,0,0,0,0.4073,0.4072,0,0.4041,0.404,0.404,0.402,0.402,0.402,0.402,0.3986,0.3985,0.3985,0,0,0,0,0,0,0,0,0,0,0,0,0,0.4116,0.4116,0.4073,0.4072,0.4072,0.4041,0.404,0.404,0.402,0.402,0.402,0.402,0.3987,0.3986,0.3985,0,0,0,0,0,0,0,0,0,0,0,0,0,0.4092,0.4115,0.4073,0.4058,0.4057,0.4041,0.404,0.404,0.402,0.402,0.402,0.402,0.3987,0.3986,0.3984,0.398,0,0,0.3981,0.398,0,0,0,0,0,0,0,0,0.4094,0.4091,0.4061,0.4059,0.4058,0.4034,0.4043,0.402,0.402,0.4034,0.402,0.402,0.4002,0.4,0.3994,0.3978,0.3977,0.3981,0.398,0.3979,0.3979,0,0,0,0,0,0,0,0.4095,0.4092,0.406,0.406,0.4058,0.4053,0.405,0.4039,0.4019,0.4033,0.4031,0.4028,0.4001,0.3995,0.3993,0.3976,0.3981,0.398,0.3979,0.3978,0.3957,0.3957,0,0,0,0,0,0,0.4099,0.4093,0.4061,0.4059,0.4076,0.4053,0.4049,0.4042,0.402,0.4016,0.4028,0.4027,0.3997,0.3995,0.3992,0.3986,0.3979,0.3978,0.3978,0.3957,0.3957,0.3957,0,0,0,0,0,0,0.41,0.4097,0.4062,0.4076,0.4071,0.4052,0.4045,0.4041,0.4035,0.4016,0.4012,0.4026,0.3997,0.3994,0.3983,0.3984,0.3978,0.3977,0.3956,0.3957,0.3957,0.3973,0,0,0,0,0,0,0.4102,0.4097,0.4095,0.4076,0.407,0.4054,0.4045,0.4041,0.4033,0.4032,0.4013,0.4009,0.3997,0.3985,0.3982,0.3983,0.3976,0.3956,0.3956,0.3957,0.3973,0.3974,0.3975,0,0,0,0,0,0.4103,0.4101,0.4095,0.4091,0.4068,0.4054,0.4051,0.4037,0.4034,0.4032,0.4019,0.401,0.3985,0.3984,0.3981,0.3981,0.3956,0.3956,0.3957,0.3972,0.3974,0.3975,0,0,0,0,0,0,0.412,0.4098,0.4091,0.4082,0.4071,0.4051,0.4048,0.404,0.4028,0.4027,0.401,0.4006,0.3998,0.3988,0.3988,0.3976,0.3969,0.3969,0.3982,0.3984,0.3985,0.3988,0.3975,0,0,0,0,0,0.4122,0.4114,0.4095,0.4089,0.4083,0.4067,0.4061,0.4051,0.4038,0.4033,0.402,0.4007,0.3996,0.399,0.3979,0.3971,0.3967,0.397,0.3971,0.3972,0.3972,0.3968,0.3969,0.3958,0.3958,0.3958,0,0,0.4127,0.4115,0.411,0.4092,0.4081,0.4073,0.4063,0.4054,0.4047,0.4031,0.4021,0.4011,0.3996,0.3987,0.3983,0.3979,0.3974,0.3973,0.3974,0.3973,0.3969,0.397,0.3971,0.3958,0.3958,0.3958,0,0,0.4133,0.4122,0.4116,0.4106,0.4091,0.408,0.4079,0.4061,0.4054,0.4044,0.4032,0.4024,0.4006,0.3996,0.3988,0.3992,0.3983,0.3988,0.3995,0.3992,0.3993,0.3994,0.3995,0.3996,0.3988,0.3988,0.3988,0,0.4141,0.4128,0.4114,0.4106,0.4099,0.4085,0.4079,0.407,0.4052,0.4047,0.4043,0.4021,0.401,0.3999,0.4,0.3994,0.3993,0.399,0.3994,0.3995,0.3995,0.3996,0.3997,0.3989,0.3989,0.3989,0.3989,0,0.4139,0.413,0.4127,0.4111,0.4103,0.4096,0.4082,0.4076,0.4067,0.4057,0.4047,0.4034,0.402,0.4017,0.4008,0.4005,0.4004,0.3997,0.399,0.3997,0.3998,0.3998,0.399,0.399,0.399,0.399,0,0,0.4152,0.4129,0.4129,0.4121,0.4104,0.4097,0.409,0.4078,0.4073,0.4061,0.4055,0.4041,0.4035,0.4027,0.4017,0.4014,0.4018,0.4008,0.4008,0.4011,0.4015,0.402,0.4021,0.4013,0.4013,0.4013,0.4017,0,0.4155,0.4141,0.413,0.4121,0.4113,0.41,0.4094,0.4083,0.4074,0.4065,0.4055,0.4045,0.4038,0.4034,0.403,0.4019,0.4019,0.4018,0.4007,0.4007,0.4011,0.4021,0.4026,0.403,0.4017,0.4017,0.4017,0,0.4156,0.4145,0.4136,0.4121,0.4117,0.4112,0.41,0.4092,0.408,0.4073,0.4065,0.4055,0.4047,0.4042,0.4031,0.4031,0.4026,0.402,0.402,0.4018,0.4012,0.402,0.4031,0.4032,0.4017,0.4017,0.4017,0,0.4167,0.4151,0.4143,0.4137,0.4119,0.4116,0.4109,0.4096,0.409,0.4079,0.4075,0.4064,0.4058,0.405,0.4037,0.4034,0.4028,0.4021,0.4023,0.4023,0.4021,0.4022,0.4032,0.4018,0.4018,0.4018,0.4018,0,0.4171,0.4166,0.4148,0.4143,0.4138,0.4124,0.4119,0.411,0.4099,0.4093,0.4081,0.4075,0.4059,0.4052,0.4042,0.4035,0.4032,0.4027,0.4025,0.4028,0.4029,0.4024,0.4024,0.4018,0.4018,0.4018,0.4018,0,0.4182,0.417,0.4161,0.4145,0.4141,0.4138,0.4124,0.4119,0.411,0.4102,0.4099,0.4085,0.4075,0.4062,0.4049,0.4042,0.4037,0.4033,0.4041,0.404,0.4042,0.4042,0.405,0.405,0.4036,0.4036,0.4036,0,0.4185,0.4181,0.4165,0.416,0.4153,0.4146,0.4139,0.4126,0.412,0.4107,0.4104,0.4094,0.4085,0.4071,0.4059,0.4049,0.4044,0.4048,0.4043,0.4047,0.4045,0.4045,0.4045,0.4049,0.4049,0.405,0.405,0,0.4192,0.4187,0.4179,0.4169,0.4162,0.4153,0.4144,0.4141,0.4126,0.412,0.4111,0.4104,0.4091,0.4081,0.407,0.4062,0.4054,0.4052,0.4051,0.4055,0.406,0.4058,0.4045,0.4051,0.4051,0.4051,0.4051,0.4051,0.4199,0.4196,0.4184,0.4176,0.4168,0.416,0.4155,0.4146,0.4138,0.4126,0.4119,0.4111,0.4099,0.4083,0.4076,0.4069,0.4066,0.4065,0.4065,0.4065,0.4067,0.4062,0.4067,0.4067,0.4067,0.4067,0.4067,0,0.4206,0.4199,0.4191,0.4179,0.4173,0.4166,0.4156,0.4151,0.4144,0.4134,0.4126,0.4116,0.4107,0.4095,0.4085,0.4082,0.4078,0.408,0.408,0.4078,0.407,0.4071,0.4083,0.4083,0.4083,0.4083,0.4083,0.4083,0.4209,0.4203,0.4196,0.4186,0.4178,0.417,0.4165,0.4158,0.415,0.414,0.4132,0.4125,0.4114,0.4104,0.4096,0.4092,0.4089,0.4093,0.4088,0.408,0.4079,0.4077,0.4079,0.4092,0.4092,0.4097,0.4097,0.4097]},{"header":{"parameterUnit":"m.s-1","parameterCategory":1,"la1":30.2991,"la2":30.254,"lo1":-89.0895,"lo2":-89.0444,"dy":0.0017,"dx":0.0017,"nx":28,"ny":28,"refTime":"2025-08-16T03:00:00:Z","depth":0,"parameterNumber":3,"parameterNumberName":"V-component_of_WINDS"},"data":[0,0,0,0,0,0,0,0,0,0,0,0,0,0,0,0,0,0,0,0,0,0,0,0,0,0,0,0,0,0,0,0,0,0,0,0,0,0,0,0,0,0,0,0,0,0,0,0,0,0,0,0,0,0,0,0,0,0,-2.9415,-2.9416,0,-2.9512,-2.9513,-2.9514,-2.9499,-2.9497,-2.9496,-2.9494,-2.9591,-2.9595,-2.9599,0,0,0,0,0,0,0,0,0,0,0,0,0,-2.9217,-2.922,-2.9415,-2.9416,-2.9418,-2.9511,-2.9513,-2.9514,-2.9499,-2.9497,-2.9495,-2.9494,-2.9589,-2.9594,-2.9599,0,0,0,0,0,0,0,0,0,0,0,0,0,-2.9307,-2.9222,-2.9415,-2.9422,-2.9423,-2.9511,-2.9513,-2.9514,-2.95,-2.9497,-2.9495,-2.9493,-2.9588,-2.9594,-2.96,-2.9686,0,0,-2.9618,-2.9621,0,0,0,0,0,0,0,0,-2.9302,-2.9314,-2.9419,-2.9421,-2.9423,-2.9491,-2.9478,-2.9572,-2.95,-2.9471,-2.9494,-2.9491,-2.9559,-2.9567,-2.9591,-2.9691,-2.9695,-2.9619,-2.9623,-2.9625,-2.9627,0,0,0,0,0,0,0,-2.9296,-2.931,-2.9453,-2.9421,-2.9423,-2.9419,-2.9429,-2.9496,-2.9527,-2.9473,-2.9472,-2.9484,-2.956,-2.9585,-2.9593,-2.9696,-2.9619,-2.9624,-2.9628,-2.963,-2.9873,-2.9876,0,0,0,0,0,0,-2.9288,-2.9305,-2.945,-2.9456,-2.9355,-2.9425,-2.9436,-2.9472,-2.9527,-2.9533,-2.9486,-2.9483,-2.9576,-2.9586,-2.9596,-2.9702,-2.9625,-2.9631,-2.9634,-2.987,-2.9874,-2.9877,0,0,0,0,0,0,-2.9283,-2.9301,-2.9446,-2.938,-2.9399,-2.9431,-2.9471,-2.9475,-2.95,-2.9536,-2.9542,-2.9506,-2.9574,-2.9588,-2.9664,-2.9705,-2.9634,-2.9639,-2.9867,-2.9871,-2.9875,-2.9914,0,0,0,0,0,0,-2.9278,-2.9299,-2.9333,-2.9381,-2.9402,-2.9513,-2.9473,-2.9478,-2.9511,-2.9508,-2.9557,-2.9562,-2.9573,-2.9655,-2.9671,-2.9712,-2.9644,-2.9864,-2.9869,-2.9874,-2.9909,-2.9919,-2.9927,0,0,0,0,0,-2.9271,-2.9339,-2.9335,-2.9352,-2.9445,-2.9516,-2.9528,-2.954,-2.9514,-2.9548,-2.9572,-2.9561,-2.9698,-2.9663,-2.968,-2.9725,-2.9861,-2.9868,-2.9874,-2.9905,-2.9917,-2.9927,0,0,0,0,0,0,-2.9294,-2.9346,-2.9341,-2.9428,-2.9468,-2.9513,-2.9556,-2.9552,-2.9599,-2.9594,-2.9606,-2.9617,-2.9695,-2.9717,-2.9677,-2.9812,-2.9776,-2.9786,-2.9794,-2.9806,-2.9815,-2.9808,-2.9649,0,0,0,0,0,-2.9309,-2.9363,-2.9405,-2.9477,-2.9498,-2.9524,-2.9555,-2.9561,-2.9602,-2.9619,-2.9648,-2.9688,-2.974,-2.9774,-2.9824,-2.9913,-2.9923,-2.9951,-2.996,-2.9968,-2.9976,-3.0025,-3.0038,-2.9897,-2.9897,-2.9897,0,0,-2.9341,-2.9376,-2.9409,-2.9483,-2.9514,-2.957,-2.9538,-2.9597,-2.9638,-2.9627,-2.9702,-2.9725,-2.977,-2.9854,-2.9892,-2.9875,-3.0018,-2.9976,-2.9981,-2.9986,-3.0033,-3.0046,-3.0058,-2.9902,-2.9901,-2.99,0,0,-2.9427,-2.9459,-2.9523,-2.9556,-2.9605,-2.9622,-2.9637,-2.9684,-2.9699,-2.9775,-2.9768,-2.9816,-2.9906,-2.9939,-2.9968,-3.0068,-3.006,-3.0084,-3.0131,-3.0179,-3.019,-3.02,-3.0236,-3.0249,-3.0092,-3.0092,-3.0092,0,-2.9461,-2.9544,-2.9556,-2.9617,-2.965,-2.9644,-2.9709,-2.974,-2.9802,-2.9824,-2.9805,-2.9918,-2.9948,-3.0039,-3.0064,-3.0087,-3.0105,-3.0078,-3.0187,-3.0197,-3.0207,-3.0241,-3.0255,-3.0095,-3.0094,-3.0094,-3.0094,0,-2.9583,-2.9641,-2.9687,-2.9748,-2.9786,-2.9848,-2.987,-2.9907,-2.9909,-2.9928,-3.0005,-3.0042,-3.0099,-3.0121,-3.0124,-3.0213,-3.0201,-3.0184,-3.0149,-3.0223,-3.0255,-3.0269,-3.0098,-3.0097,-3.0097,-3.0096,0,0,-2.9686,-2.9754,-2.9771,-2.9799,-2.9853,-2.9898,-2.996,-3.0018,-3.0049,-3.0092,-3.0145,-3.0222,-3.0207,-3.0239,-3.0246,-3.0287,-3.0365,-3.0266,-3.0267,-3.0283,-3.0466,-3.0479,-3.0494,-3.036,-3.0363,-3.0365,-3.0463,0,-2.9778,-2.9889,-2.9902,-3.0,-3.0054,-3.005,-3.0104,-3.0143,-3.0162,-3.0211,-3.0232,-3.0286,-3.0262,-3.0282,-3.0323,-3.0347,-3.0402,-3.034,-3.0409,-3.0411,-3.0398,-3.0511,-3.0525,-3.0615,-3.0475,-3.0478,-3.0479,0,-2.9899,-2.9948,-3.0052,-3.0099,-3.0122,-3.0171,-3.0225,-3.0271,-3.0315,-3.0327,-3.0364,-3.0365,-3.0429,-3.0391,-3.048,-3.0437,-3.0466,-3.0482,-3.0486,-3.0493,-3.045,-3.0521,-3.0644,-3.0658,-3.0499,-3.0498,-3.0496,0,-2.9965,-3.0055,-3.013,-3.0154,-3.0211,-3.0245,-3.0271,-3.0312,-3.0346,-3.0393,-3.0416,-3.0469,-3.0499,-3.054,-3.0556,-3.0527,-3.0644,-3.0607,-3.0655,-3.0655,-3.068,-3.0678,-3.0809,-3.0698,-3.0698,-3.0698,-3.0697,0,-3.0066,-3.013,-3.016,-3.0206,-3.0277,-3.0292,-3.0362,-3.0386,-3.0423,-3.0473,-3.0472,-3.0519,-3.0537,-3.0587,-3.06,-3.0671,-3.0684,-3.0695,-3.0698,-3.0696,-3.0694,-3.0715,-3.0709,-3.0701,-3.07,-3.07,-3.0699,0,-3.0151,-3.0174,-3.0255,-3.0302,-3.0316,-3.0367,-3.0407,-3.0451,-3.0471,-3.0534,-3.055,-3.058,-3.0639,-3.0659,-3.0729,-3.0738,-3.0822,-3.0818,-3.0807,-3.0808,-3.0855,-3.085,-3.1004,-3.1025,-3.09,-3.0901,-3.0902,0,-3.0214,-3.0264,-3.0317,-3.0351,-3.0378,-3.0432,-3.0468,-3.0484,-3.052,-3.0575,-3.0613,-3.0671,-3.0719,-3.0812,-3.084,-3.0895,-3.0893,-3.0943,-3.0901,-3.0898,-3.0894,-3.0891,-3.0897,-3.0951,-3.0952,-3.0953,-3.0954,0,-3.0324,-3.0333,-3.0384,-3.044,-3.0482,-3.0527,-3.0569,-3.0597,-3.062,-3.0661,-3.0721,-3.0758,-3.0831,-3.0889,-3.0945,-3.097,-3.0967,-3.0967,-3.0981,-3.098,-3.0971,-3.0977,-3.0829,-3.0964,-3.0963,-3.0962,-3.0961,-3.0961,-3.0401,-3.0445,-3.049,-3.0547,-3.0581,-3.0621,-3.0665,-3.0691,-3.0742,-3.0803,-3.081,-3.0875,-3.0918,-3.0993,-3.1021,-3.1072,-3.1058,-3.1078,-3.1083,-3.1088,-3.1092,-3.0963,-3.1082,-3.1082,-3.1082,-3.1081,-3.1081,0,-3.0511,-3.054,-3.0593,-3.0653,-3.0698,-3.0691,-3.0739,-3.0777,-3.0835,-3.0876,-3.0923,-3.0993,-3.105,-3.1082,-3.1139,-3.1174,-3.1173,-3.1188,-3.1186,-3.1192,-3.1101,-3.1084,-3.1188,-3.1187,-3.1187,-3.1187,-3.1187,-3.1187,-3.0574,-3.0648,-3.0663,-3.0754,-3.0783,-3.0847,-3.0875,-3.0912,-3.0945,-3.1024,-3.1071,-3.1093,-3.1131,-3.119,-3.1242,-3.125,-3.1271,-3.1287,-3.1294,-3.1209,-3.1198,-3.1188,-3.1171,-3.1292,-3.1292,-3.1381,-3.1381,-3.1382]}]]